BOX503 VHHH-EDDP

Flight info

Callsign BOX503
Flight time N/A
Altitude 25600
Route BEKOL A461 SHL W22 TEPID W24 OSNOV G586 QP B330 ELKAL W179 LEBIV/K0913S0840 W179 IGNAK/K0893S0810 W179 WFX/K0907S0840 W179 OMBON/K0930S0920 Y1 SADAN W186 KAMUD/K0906F300 L141 TISIB L163 SR N193 OGOLI T898 DARVA/N0489F300 B476 METKA L88 NIJAT/N0484F320 N644 ADEKI DCT BADIR DCT LAGAS DCT NOLGA UG261 TBN UM11 CRM UL746 ODERO L746 LUGEB DCT NARKA DCT MAKAL DCT BEFRE DCT IVQOQ/N0472F300 T951 YAWOY YAWOY1V
Aircraft B77L/H-SDE1E2E3FGHIJ2J3J4J5M1RWXYZ/LB1D1

Departure

Time N/A
Airport Hong Kong International Airport (VHHH)

Arrival

Time 2026-05-06 21:59
Airport Leipzig/Halle Airport (EDDP)
Time Latitude Longitude Altitude Speed Heading
2026-05-06 19:18 41.67006 34.91533 34134 ft 470 kts 290°
2026-05-06 19:19 41.67999 34.87369 34123 ft 470 kts 290°
2026-05-06 19:19 41.69983 34.79035 34134 ft 470 kts 290°
2026-05-06 19:20 41.71962 34.70680 34126 ft 471 kts 290°
2026-05-06 19:20 41.73924 34.62377 34128 ft 471 kts 290°
2026-05-06 19:21 41.75894 34.54003 34128 ft 472 kts 290°
2026-05-06 19:21 41.77854 34.45627 34119 ft 472 kts 290°
2026-05-06 19:22 41.79813 34.37231 34136 ft 472 kts 290°
2026-05-06 19:22 41.81771 34.28813 34116 ft 473 kts 290°
2026-05-06 19:23 41.83720 34.20393 34125 ft 473 kts 290°
2026-05-06 19:23 41.85664 34.11965 34125 ft 473 kts 290°
2026-05-06 19:24 41.87600 34.03540 34132 ft 472 kts 290°
2026-05-06 19:24 41.89529 33.95114 34135 ft 472 kts 290°
2026-05-06 19:25 41.91453 33.86679 34134 ft 472 kts 290°
2026-05-06 19:25 41.93367 33.78258 34135 ft 472 kts 290°
2026-05-06 19:26 41.95274 33.69831 34133 ft 471 kts 289°
2026-05-06 19:26 41.96968 33.61380 34130 ft 472 kts 287°
2026-05-06 19:27 41.98559 33.52835 34140 ft 471 kts 287°
2026-05-06 19:27 42.00171 33.44304 34110 ft 470 kts 288°
2026-05-06 19:28 42.01794 33.35802 34128 ft 469 kts 288°
2026-05-06 19:28 42.03409 33.27328 34117 ft 467 kts 288°
2026-05-06 19:29 42.05011 33.18876 34112 ft 465 kts 288°
2026-05-06 19:29 42.06598 33.10472 34120 ft 463 kts 288°
2026-05-06 19:30 42.08230 33.02105 34125 ft 461 kts 290°
2026-05-06 19:30 42.09958 32.93796 34106 ft 461 kts 290°
2026-05-06 19:31 42.11677 32.85479 34120 ft 461 kts 289°
2026-05-06 19:31 42.14210 32.73031 34109 ft 462 kts 289°
2026-05-06 19:32 42.15901 32.64675 34116 ft 463 kts 289°
2026-05-06 19:32 42.17587 32.56299 34115 ft 463 kts 289°
2026-05-06 19:33 42.19264 32.47913 34112 ft 464 kts 289°
2026-05-06 19:33 42.20940 32.39502 34112 ft 464 kts 289°
2026-05-06 19:34 42.22610 32.31081 34109 ft 465 kts 289°
2026-05-06 19:34 42.24276 32.22657 34109 ft 465 kts 289°
2026-05-06 19:35 42.25939 32.14231 34102 ft 464 kts 289°
2026-05-06 19:35 42.27595 32.05803 34113 ft 465 kts 289°
2026-05-06 19:36 42.29239 31.97360 34111 ft 465 kts 289°
2026-05-06 19:36 42.30877 31.88908 34112 ft 465 kts 289°
2026-05-06 19:37 42.32510 31.80457 34109 ft 465 kts 289°
2026-05-06 19:37 42.33865 31.73413 34114 ft 466 kts 289°
2026-05-06 19:38 42.35766 31.63495 34109 ft 467 kts 289°
2026-05-06 19:38 42.37377 31.55050 34113 ft 467 kts 289°
2026-05-06 19:39 42.39004 31.46477 34104 ft 468 kts 288°
2026-05-06 19:39 42.40339 31.39419 34117 ft 468 kts 288°
2026-05-06 19:40 42.41947 31.30881 34116 ft 469 kts 288°
2026-05-06 19:40 42.43550 31.22327 34115 ft 469 kts 288°
2026-05-06 19:41 42.45138 31.13826 34109 ft 469 kts 288°
2026-05-06 19:41 42.46733 31.05255 34118 ft 469 kts 288°
2026-05-06 19:42 42.48324 30.96686 34116 ft 469 kts 288°
2026-05-06 19:42 42.49909 30.88110 34115 ft 469 kts 288°
2026-05-06 19:43 42.51486 30.79537 34106 ft 468 kts 288°
2026-05-06 19:43 42.53054 30.70973 34113 ft 468 kts 288°
2026-05-06 19:44 42.54614 30.62414 34116 ft 467 kts 287°
2026-05-06 19:44 42.56166 30.53859 34096 ft 467 kts 287°
2026-05-06 19:45 42.57710 30.45311 34111 ft 466 kts 287°
2026-05-06 19:45 42.59246 30.36773 34114 ft 465 kts 287°
2026-05-06 19:46 42.61113 30.28478 34112 ft 460 kts 298°
2026-05-06 19:46 42.64445 30.21110 34102 ft 453 kts 312°
2026-05-06 19:47 42.68616 30.14768 34113 ft 453 kts 315°
2026-05-06 19:47 42.72854 30.08408 34121 ft 454 kts 314°
2026-05-06 19:48 42.77081 30.01989 34116 ft 456 kts 314°
2026-05-06 19:48 42.81299 29.95526 34103 ft 457 kts 314°
2026-05-06 19:49 42.85515 29.89038 34118 ft 457 kts 313°
2026-05-06 19:49 42.89728 29.82539 34117 ft 458 kts 313°
2026-05-06 19:50 42.93953 29.76011 34117 ft 459 kts 314°
2026-05-06 19:50 42.98172 29.69477 34114 ft 458 kts 313°
2026-05-06 19:51 43.02383 29.62942 34117 ft 458 kts 313°
2026-05-06 19:51 43.06586 29.56403 34116 ft 457 kts 313°
2026-05-06 19:52 43.10776 29.49869 34116 ft 457 kts 313°
2026-05-06 19:52 43.14965 29.43324 34116 ft 457 kts 313°
2026-05-06 19:53 43.19145 29.36777 34114 ft 456 kts 313°
2026-05-06 19:53 43.23293 29.30267 34114 ft 456 kts 313°
2026-05-06 19:54 43.27457 29.23714 34115 ft 454 kts 313°
2026-05-06 19:54 43.30906 29.18277 34107 ft 454 kts 313°
2026-05-06 19:55 43.35745 29.10631 34121 ft 454 kts 313°
2026-05-06 19:55 43.39884 29.04075 34115 ft 454 kts 313°
2026-05-06 19:56 43.43316 28.98628 34111 ft 453 kts 313°
2026-05-06 19:56 43.47432 28.92079 34113 ft 452 kts 313°
2026-05-06 19:57 43.51534 28.85541 34113 ft 450 kts 313°
2026-05-06 19:57 43.55627 28.79000 34094 ft 450 kts 313°
2026-05-06 19:58 43.59693 28.72488 34106 ft 447 kts 313°
2026-05-06 19:58 43.63748 28.65979 34107 ft 446 kts 313°
2026-05-06 19:59 43.67786 28.59482 34110 ft 446 kts 313°
2026-05-06 19:59 43.71823 28.52975 34100 ft 446 kts 313°
2026-05-06 20:00 43.75836 28.46417 34111 ft 447 kts 312°
2026-05-06 20:00 43.79768 28.39753 34112 ft 447 kts 311°
2026-05-06 20:01 43.83691 28.33060 34106 ft 448 kts 311°
2026-05-06 20:01 43.87623 28.26358 34111 ft 447 kts 311°
2026-05-06 20:02 43.91521 28.19716 34090 ft 447 kts 311°
2026-05-06 20:02 43.95458 28.12996 34109 ft 446 kts 311°
2026-05-06 20:03 43.99343 28.06352 34102 ft 445 kts 311°
2026-05-06 20:03 44.03261 27.99633 34104 ft 444 kts 311°
2026-05-06 20:04 44.07146 27.92957 34091 ft 444 kts 311°
2026-05-06 20:04 44.11024 27.86277 34081 ft 444 kts 311°
2026-05-06 20:05 44.14897 27.79589 34091 ft 443 kts 311°
2026-05-06 20:05 44.18762 27.72901 34070 ft 442 kts 311°
2026-05-06 20:06 44.22587 27.66265 34074 ft 442 kts 311°
2026-05-06 20:06 44.26428 27.59587 34078 ft 441 kts 311°
2026-05-06 20:07 44.30259 27.52910 34067 ft 440 kts 311°
2026-05-06 20:07 44.34081 27.46234 34059 ft 440 kts 310°
2026-05-06 20:08 44.37893 27.39560 34064 ft 439 kts 310°
2026-05-06 20:08 44.41699 27.32882 34079 ft 439 kts 310°
2026-05-06 20:09 44.45503 27.26190 34068 ft 440 kts 310°
2026-05-06 20:09 44.49312 27.19477 34053 ft 440 kts 310°
2026-05-06 20:10 44.53119 27.12749 34061 ft 441 kts 310°
2026-05-06 20:10 44.56925 27.06006 34059 ft 441 kts 310°
2026-05-06 20:11 44.59445 27.01534 34060 ft 441 kts 310°
2026-05-06 20:11 44.64558 26.92438 34058 ft 442 kts 310°
2026-05-06 20:12 44.68359 26.85657 34058 ft 442 kts 310°
2026-05-06 20:12 44.72156 26.78867 34054 ft 442 kts 310°
2026-05-06 20:13 44.75948 26.72069 34058 ft 442 kts 310°
2026-05-06 20:13 44.79734 26.65267 34050 ft 441 kts 309°
2026-05-06 20:14 44.83516 26.58457 34055 ft 441 kts 309°
2026-05-06 20:14 44.87296 26.51633 34056 ft 442 kts 309°
2026-05-06 20:15 44.91074 26.44795 34058 ft 442 kts 309°
2026-05-06 20:15 44.94847 26.37952 34049 ft 442 kts 309°
2026-05-06 20:16 44.98616 26.31098 34056 ft 442 kts 309°
2026-05-06 20:16 45.02359 26.24275 34059 ft 442 kts 309°
2026-05-06 20:17 45.06148 26.17353 34058 ft 443 kts 309°
2026-05-06 20:17 45.09889 26.10502 34056 ft 443 kts 309°
2026-05-06 20:18 45.13651 26.03593 34059 ft 443 kts 309°
2026-05-06 20:18 45.17412 25.96673 34060 ft 443 kts 309°
2026-05-06 20:19 45.21171 25.89739 34077 ft 444 kts 309°
2026-05-06 20:19 45.24927 25.82791 34066 ft 444 kts 309°
2026-05-06 20:20 45.28679 25.75835 34061 ft 443 kts 309°
2026-05-06 20:20 45.32423 25.68878 34071 ft 443 kts 309°
2026-05-06 20:21 45.36158 25.61920 34062 ft 443 kts 308°
2026-05-06 20:21 45.39890 25.54952 34063 ft 443 kts 308°
2026-05-06 20:22 45.43617 25.47972 34047 ft 443 kts 308°
2026-05-06 20:22 45.47342 25.40981 34053 ft 443 kts 308°
2026-05-06 20:23 45.51064 25.33978 34052 ft 443 kts 308°
2026-05-06 20:23 45.54779 25.26973 34073 ft 443 kts 308°
2026-05-06 20:24 45.58494 25.19948 34070 ft 443 kts 308°
2026-05-06 20:24 45.62204 25.12914 34041 ft 443 kts 308°
2026-05-06 20:25 45.65903 25.05886 34030 ft 442 kts 308°
2026-05-06 20:25 45.69584 24.98875 34024 ft 441 kts 307°
2026-05-06 20:26 45.73240 24.91894 34026 ft 441 kts 307°
2026-05-06 20:26 45.76919 24.84850 34029 ft 442 kts 307°
2026-05-06 20:27 45.80599 24.77788 34011 ft 442 kts 307°
2026-05-06 20:27 45.84279 24.70708 33999 ft 443 kts 307°
2026-05-06 20:28 45.87963 24.63603 33991 ft 444 kts 307°
2026-05-06 20:28 45.91651 24.56470 33991 ft 445 kts 306°
2026-05-06 20:29 45.95342 24.49314 34004 ft 446 kts 306°
2026-05-06 20:29 45.99034 24.42139 33988 ft 446 kts 306°
2026-05-06 20:30 46.04567 24.31353 33986 ft 447 kts 306°
2026-05-06 20:31 46.08249 24.24149 33985 ft 447 kts 306°
2026-05-06 20:31 46.11923 24.16942 33987 ft 446 kts 306°
2026-05-06 20:32 46.15595 24.09723 33982 ft 446 kts 306°
2026-05-06 20:32 46.19261 24.02497 33986 ft 446 kts 306°
2026-05-06 20:33 46.22917 23.95273 33990 ft 446 kts 306°
2026-05-06 20:33 46.26570 23.88035 33987 ft 446 kts 306°
2026-05-06 20:34 46.30219 23.80786 33977 ft 446 kts 305°
2026-05-06 20:34 46.33849 23.73557 34003 ft 448 kts 305°
2026-05-06 20:35 46.37511 23.66244 33988 ft 449 kts 305°
2026-05-06 20:35 46.41176 23.58906 33989 ft 450 kts 305°
2026-05-06 20:36 46.44839 23.51555 33985 ft 451 kts 304°
2026-05-06 20:36 46.48511 23.44165 33990 ft 452 kts 304°
2026-05-06 20:37 46.52184 23.36750 33994 ft 452 kts 304°
2026-05-06 20:37 46.55853 23.29326 33995 ft 453 kts 304°
2026-05-06 20:38 46.59526 23.21877 34023 ft 453 kts 304°
2026-05-06 20:38 46.63196 23.14412 34005 ft 455 kts 304°
2026-05-06 20:39 46.66868 23.06921 34004 ft 455 kts 304°
2026-05-06 20:39 46.70543 22.99405 34006 ft 456 kts 304°
2026-05-06 20:40 46.74214 22.91878 34010 ft 455 kts 304°
2026-05-06 20:40 46.77861 22.84380 33993 ft 455 kts 303°
2026-05-06 20:41 46.81519 22.76837 33990 ft 455 kts 303°
2026-05-06 20:41 46.85166 22.69297 33988 ft 454 kts 303°
2026-05-06 20:42 46.88802 22.61759 33999 ft 454 kts 303°
2026-05-06 20:42 46.92445 22.54187 33975 ft 456 kts 303°
2026-05-06 20:43 46.95500 22.47820 33967 ft 456 kts 303°
2026-05-06 20:43 46.99120 22.40257 33977 ft 457 kts 303°
2026-05-06 20:44 47.02765 22.32621 33961 ft 457 kts 303°
2026-05-06 20:44 47.06410 22.24965 33968 ft 458 kts 302°
2026-05-06 20:45 47.10048 22.17300 33949 ft 458 kts 302°
2026-05-06 20:45 47.13687 22.09612 33950 ft 458 kts 303°
2026-05-06 20:46 47.17319 22.01919 33937 ft 458 kts 303°
2026-05-06 20:46 47.20946 21.94216 33940 ft 457 kts 302°
2026-05-06 20:47 47.24568 21.86525 33934 ft 457 kts 303°
2026-05-06 20:47 47.28607 21.79272 33936 ft 458 kts 308°
2026-05-06 20:48 47.32764 21.72145 33923 ft 459 kts 308°
2026-05-06 20:48 47.36910 21.64992 33937 ft 459 kts 307°
2026-05-06 20:49 47.41046 21.57797 33925 ft 460 kts 307°
2026-05-06 20:49 47.45178 21.50572 33927 ft 461 kts 307°
2026-05-06 20:50 47.49290 21.43361 33927 ft 462 kts 307°
2026-05-06 20:50 47.53431 21.36082 33922 ft 462 kts 307°
2026-05-06 20:51 47.57573 21.28784 33926 ft 463 kts 307°
2026-05-06 20:51 47.61716 21.21462 33918 ft 464 kts 307°
2026-05-06 20:52 47.65858 21.14122 33924 ft 464 kts 307°
2026-05-06 20:52 47.69998 21.06768 33924 ft 464 kts 307°
2026-05-06 20:53 47.74136 20.99396 33921 ft 464 kts 307°
2026-05-06 20:53 47.78266 20.92018 33905 ft 464 kts 307°
2026-05-06 20:54 47.82386 20.84638 33920 ft 464 kts 307°
2026-05-06 20:54 47.86504 20.77242 33921 ft 463 kts 307°
2026-05-06 20:55 47.90611 20.69845 33914 ft 463 kts 306°
2026-05-06 20:55 47.94716 20.62432 33919 ft 464 kts 306°
2026-05-06 20:56 47.98819 20.54999 33919 ft 464 kts 306°
2026-05-06 20:56 48.02892 20.47601 33911 ft 465 kts 306°
2026-05-06 20:57 48.07002 20.40117 33934 ft 466 kts 306°
2026-05-06 20:57 48.11112 20.32613 33919 ft 467 kts 306°
2026-05-06 20:58 48.15225 20.25081 33919 ft 468 kts 306°
2026-05-06 20:58 48.19338 20.17526 33925 ft 467 kts 306°
2026-05-06 20:59 48.23442 20.09970 33922 ft 467 kts 305°
2026-05-06 20:59 48.27536 20.02411 33925 ft 466 kts 305°
2026-05-06 21:00 48.31612 19.94862 33916 ft 465 kts 305°
2026-05-06 21:00 48.35678 19.87309 33925 ft 464 kts 305°
2026-05-06 21:01 48.39735 19.79754 33919 ft 464 kts 305°
2026-05-06 21:01 48.43784 19.72193 33924 ft 464 kts 304°
2026-05-06 21:02 48.47809 19.64653 33916 ft 465 kts 304°
2026-05-06 21:02 48.51865 19.57034 33927 ft 466 kts 305°
2026-05-06 21:03 48.55924 19.49387 33918 ft 467 kts 305°
2026-05-06 21:03 48.59984 19.41720 33932 ft 468 kts 305°
2026-05-06 21:04 48.64044 19.34027 33917 ft 468 kts 305°
2026-05-06 21:04 48.68103 19.26316 33907 ft 468 kts 304°
2026-05-06 21:05 48.72156 19.18596 33908 ft 468 kts 304°
2026-05-06 21:05 48.76205 19.10860 33899 ft 468 kts 304°
2026-05-06 21:06 48.80236 19.03135 33908 ft 467 kts 304°
2026-05-06 21:06 48.84268 18.95384 33882 ft 467 kts 304°
2026-05-06 21:07 48.88278 18.87655 33876 ft 466 kts 304°
2026-05-06 21:07 48.92279 18.79922 33873 ft 465 kts 304°
2026-05-06 21:08 48.96269 18.72189 33877 ft 464 kts 303°
2026-05-06 21:08 49.00236 18.64473 33849 ft 463 kts 303°
2026-05-06 21:09 49.04196 18.56751 33846 ft 462 kts 303°
2026-05-06 21:09 49.08145 18.49029 33862 ft 461 kts 303°
2026-05-06 21:10 49.12085 18.41302 33855 ft 461 kts 303°
2026-05-06 21:10 49.16020 18.33560 33828 ft 462 kts 303°
2026-05-06 21:11 49.19952 18.25802 33847 ft 462 kts 303°
2026-05-06 21:11 49.23880 18.18033 33825 ft 462 kts 303°
2026-05-06 21:12 49.27842 18.10294 33817 ft 462 kts 303°
2026-05-06 21:12 49.31821 18.02659 33825 ft 461 kts 303°
2026-05-06 21:13 49.35840 17.94929 33801 ft 459 kts 303°
2026-05-06 21:13 49.39769 17.87328 33809 ft 457 kts 302°
2026-05-06 21:14 49.43704 17.79678 33800 ft 456 kts 302°
2026-05-06 21:14 49.47624 17.72030 33797 ft 455 kts 302°
2026-05-06 21:15 49.51537 17.64376 33801 ft 455 kts 302°
2026-05-06 21:15 49.55448 17.56704 33799 ft 456 kts 302°
2026-05-06 21:16 49.59358 17.49012 33789 ft 456 kts 302°
2026-05-06 21:16 49.63084 17.41139 33776 ft 451 kts 294°
2026-05-06 21:17 49.66139 17.32731 33807 ft 449 kts 293°
2026-05-06 21:17 49.69173 17.24296 33789 ft 450 kts 293°
2026-05-06 21:18 49.72230 17.15846 33783 ft 451 kts 293°
2026-05-06 21:18 49.75298 17.07393 33784 ft 451 kts 293°
2026-05-06 21:19 49.78348 16.98974 33777 ft 451 kts 293°
2026-05-06 21:19 49.81430 16.90438 33773 ft 452 kts 292°
2026-05-06 21:20 49.84471 16.81988 33776 ft 452 kts 292°
2026-05-06 21:20 49.87525 16.73473 33775 ft 452 kts 292°
2026-05-06 21:21 49.90571 16.64950 33765 ft 452 kts 292°
2026-05-06 21:21 49.93612 16.56411 33791 ft 452 kts 292°
2026-05-06 21:22 49.96655 16.47839 33768 ft 454 kts 292°
2026-05-06 21:22 49.99700 16.39231 33768 ft 455 kts 292°
2026-05-06 21:23 50.02741 16.30606 33761 ft 455 kts 292°
2026-05-06 21:23 50.05778 16.21968 33758 ft 455 kts 291°
2026-05-06 21:24 50.08812 16.13304 33767 ft 456 kts 291°
2026-05-06 21:24 50.11842 16.04625 33760 ft 456 kts 291°
2026-05-06 21:25 50.14864 15.95943 33757 ft 455 kts 291°
2026-05-06 21:25 50.17872 15.87268 33757 ft 455 kts 291°
2026-05-06 21:26 50.20871 15.78587 33791 ft 454 kts 291°
2026-05-06 21:26 50.23866 15.69888 33773 ft 455 kts 292°
2026-05-06 21:27 50.26839 15.61222 33761 ft 456 kts 291°
2026-05-06 21:27 50.29833 15.52468 33762 ft 456 kts 292°
2026-05-06 21:28 50.32820 15.43703 33765 ft 457 kts 292°
2026-05-06 21:28 50.35810 15.34899 33760 ft 459 kts 292°
2026-05-06 21:29 50.38806 15.26046 33769 ft 461 kts 292°
2026-05-06 21:29 50.41807 15.17147 33767 ft 462 kts 292°
2026-05-06 21:30 50.44811 15.08208 33772 ft 463 kts 292°
2026-05-06 21:30 50.47813 14.99248 33770 ft 464 kts 292°
2026-05-06 21:31 50.50306 14.91778 33783 ft 465 kts 292°
2026-05-06 21:31 50.53296 14.82792 33779 ft 464 kts 291°
2026-05-06 21:32 50.56765 14.72325 33782 ft 464 kts 291°
2026-05-06 21:32 50.60738 14.60284 33781 ft 463 kts 291°
2026-05-06 21:33 50.63693 14.51293 33792 ft 462 kts 291°
2026-05-06 21:33 50.66630 14.42327 33639 ft 458 kts 290°
2026-05-06 21:34 50.68069 14.37917 33287 ft 459 kts 290°
2026-05-06 21:34 50.69470 14.33400 33003 ft 456 kts 287°
2026-05-06 21:34 50.70600 14.28776 32839 ft 449 kts 283°
2026-05-06 21:34 50.71651 14.24149 32713 ft 448 kts 283°
2026-05-06 21:35 50.72687 14.19510 32592 ft 450 kts 283°
2026-05-06 21:35 50.73730 14.14836 32141 ft 452 kts 283°
2026-05-06 21:35 50.74781 14.10176 31618 ft 448 kts 283°
2026-05-06 21:35 50.75827 14.05576 31108 ft 443 kts 283°
2026-05-06 21:36 50.76866 14.01027 30628 ft 438 kts 283°
2026-05-06 21:36 50.77895 13.96526 30147 ft 433 kts 283°
2026-05-06 21:36 50.78912 13.92069 29636 ft 429 kts 283°
2026-05-06 21:36 50.79917 13.87651 29112 ft 425 kts 283°
2026-05-06 21:37 50.80911 13.83272 28616 ft 420 kts 283°
2026-05-06 21:37 50.81891 13.78948 28144 ft 416 kts 283°
2026-05-06 21:37 50.82860 13.74664 27653 ft 412 kts 283°
2026-05-06 21:37 50.83815 13.70425 27185 ft 408 kts 284°
2026-05-06 21:38 50.84763 13.66214 26716 ft 405 kts 284°
2026-05-06 21:38 50.85702 13.62034 26250 ft 402 kts 284°
2026-05-06 21:38 50.86632 13.57883 25800 ft 399 kts 284°
2026-05-06 21:38 50.87555 13.53759 25340 ft 396 kts 284°
2026-05-06 21:39 50.88470 13.49658 24882 ft 394 kts 285°
2026-05-06 21:39 50.89379 13.45578 24444 ft 392 kts 285°
2026-05-06 21:39 50.90282 13.41518 24012 ft 390 kts 285°
2026-05-06 21:39 50.91179 13.37476 23548 ft 388 kts 285°
2026-05-06 21:40 50.92072 13.33447 23052 ft 387 kts 285°
2026-05-06 21:40 50.92960 13.29434 22562 ft 385 kts 285°
2026-05-06 21:40 50.93841 13.25445 22117 ft 382 kts 286°
2026-05-06 21:40 50.94714 13.21485 21667 ft 379 kts 286°
2026-05-06 21:41 50.95579 13.17550 21226 ft 377 kts 286°
2026-05-06 21:41 50.96439 13.13636 20792 ft 374 kts 286°
2026-05-06 21:41 50.97289 13.09756 20363 ft 372 kts 286°
2026-05-06 21:41 50.98135 13.05887 19928 ft 370 kts 286°
2026-05-06 21:42 50.98976 13.02036 19503 ft 368 kts 286°
2026-05-06 21:42 50.99812 12.98198 19076 ft 367 kts 286°
2026-05-06 21:42 51.00633 12.94423 18658 ft 366 kts 286°
2026-05-06 21:42 51.01462 12.90605 18230 ft 365 kts 286°
2026-05-06 21:43 51.02288 12.86793 17754 ft 365 kts 286°
2026-05-06 21:43 51.03110 12.82989 17296 ft 363 kts 287°
2026-05-06 21:43 51.03929 12.79198 16845 ft 362 kts 287°
2026-05-06 21:43 51.04742 12.75422 16393 ft 360 kts 287°
2026-05-06 21:44 51.05553 12.71653 15969 ft 359 kts 287°
2026-05-06 21:44 51.06358 12.67906 15540 ft 358 kts 287°
2026-05-06 21:44 51.07158 12.64170 15116 ft 356 kts 287°
2026-05-06 21:44 51.07955 12.60442 14691 ft 356 kts 287°
2026-05-06 21:45 51.08750 12.56720 14255 ft 355 kts 287°
2026-05-06 21:45 51.09542 12.53005 13844 ft 354 kts 287°
2026-05-06 21:45 51.10331 12.49294 13393 ft 354 kts 287°
2026-05-06 21:45 51.11118 12.45587 12913 ft 353 kts 287°
2026-05-06 21:46 51.11903 12.41889 12482 ft 352 kts 287°
2026-05-06 21:46 51.12682 12.38206 12058 ft 351 kts 287°
2026-05-06 21:46 51.13458 12.34534 11632 ft 349 kts 287°
2026-05-06 21:46 51.14230 12.30872 11210 ft 348 kts 287°
2026-05-06 21:47 51.14998 12.27221 10781 ft 347 kts 287°
2026-05-06 21:47 51.15761 12.23592 10517 ft 342 kts 287°
2026-05-06 21:47 51.16504 12.20051 10365 ft 333 kts 287°
2026-05-06 21:47 51.17228 12.16596 10222 ft 325 kts 287°
2026-05-06 21:48 51.17932 12.13225 10082 ft 317 kts 287°
2026-05-06 21:48 51.18618 12.09940 9960 ft 308 kts 287°
2026-05-06 21:48 51.19276 12.06780 9825 ft 301 kts 287°
2026-05-06 21:48 51.19930 12.03635 9614 ft 295 kts 286°
2026-05-06 21:49 51.20577 12.00518 9375 ft 290 kts 286°
2026-05-06 21:49 51.21198 11.97525 9209 ft 279 kts 287°
2026-05-06 21:49 51.21789 11.94668 9008 ft 271 kts 287°
2026-05-06 21:49 51.22365 11.91869 8635 ft 260 kts 287°
2026-05-06 21:50 51.22921 11.89140 7841 ft 259 kts 287°
2026-05-06 21:50 51.23471 11.86393 7083 ft 261 kts 287°
2026-05-06 21:50 51.24014 11.83629 6514 ft 262 kts 287°
2026-05-06 21:50 51.24571 11.80887 6190 ft 254 kts 293°
2026-05-06 21:51 51.25598 11.78664 5840 ft 249 kts 322°
2026-05-06 21:51 51.27090 11.77361 5651 ft 244 kts 334°
2026-05-06 21:51 51.28651 11.76320 5441 ft 243 kts 345°
2026-05-06 21:51 51.30335 11.76104 5227 ft 241 kts
2026-05-06 21:52 51.31976 11.76174 5093 ft 230 kts
2026-05-06 21:52 51.33521 11.76232 5088 ft 213 kts
2026-05-06 21:52 51.34957 11.76285 5050 ft 202 kts
2026-05-06 21:52 51.36345 11.76390 4990 ft 198 kts
2026-05-06 21:53 51.37666 11.76923 4932 ft 199 kts 33°
2026-05-06 21:53 51.38517 11.78614 4891 ft 199 kts 72°
2026-05-06 21:53 51.38860 11.80767 4953 ft 202 kts 77°
2026-05-06 21:53 51.39166 11.83003 4930 ft 207 kts 78°
2026-05-06 21:54 51.39432 11.85286 4758 ft 211 kts 82°
2026-05-06 21:54 51.39603 11.87610 4456 ft 208 kts 85°
2026-05-06 21:54 51.39721 11.89844 4233 ft 196 kts 86°
2026-05-06 21:54 51.39824 11.91989 3947 ft 191 kts 86°
2026-05-06 21:55 51.39923 11.94101 3710 ft 187 kts 86°
2026-05-06 21:55 51.40017 11.96116 3450 ft 176 kts 86°
2026-05-06 21:55 51.40106 11.98019 3209 ft 166 kts 86°
2026-05-06 21:55 51.40189 11.99769 3029 ft 155 kts 87°
2026-05-06 21:56 51.40269 12.01486 2831 ft 155 kts 87°
2026-05-06 21:56 51.40348 12.03194 2626 ft 154 kts 88°
2026-05-06 21:56 51.40425 12.04898 2418 ft 152 kts 88°
2026-05-06 21:56 51.40501 12.06608 2190 ft 156 kts 87°
2026-05-06 21:57 51.40581 12.08332 2015 ft 155 kts 87°
2026-05-06 21:57 51.40672 12.10054 1779 ft 156 kts 86°
2026-05-06 21:57 51.40753 12.11749 1576 ft 151 kts 86°
2026-05-06 21:57 51.40832 12.13428 1380 ft 149 kts 86°
2026-05-06 21:58 51.40906 12.15093 1135 ft 151 kts 86°
2026-05-06 21:58 51.40983 12.16749 927 ft 149 kts 85°
2026-05-06 21:58 51.41062 12.18396 747 ft 147 kts 84°
2026-05-06 21:58 51.41137 12.20020 556 ft 145 kts 84°
2026-05-06 21:59 51.41216 12.21577 467 ft 129 kts 86°
2026-05-06 21:59 51.41270 12.22765 477 ft 85 kts 85°
2026-05-06 21:59 51.41305 12.23551 473 ft 53 kts 85°
2026-05-06 21:59 51.41297 12.23985 481 ft 33 kts 107°
2026-05-06 22:00 51.41228 12.24220 472 ft 20 kts 117°
2026-05-06 22:00 51.41179 12.24355 473 ft 14 kts 132°
2026-05-06 22:00 51.41121 12.24398 472 ft 8 kts 175°
2026-05-06 22:00 51.41082 12.24295 475 ft 15 kts 265°
2026-05-06 22:01 51.41005 12.24219 473 ft 17 kts 178°
2026-05-06 22:01 51.40937 12.24253 471 ft 7 kts 117°
2026-05-06 22:01 51.40936 12.24326 470 ft 4 kts 86°
2026-05-06 22:01 51.40936 12.24338 470 ft 0 kts 86°